www.pogodaiklimat.ru

Погода и климат >> Архив погоды >> Россия >> Ростовская область >> Шахты


АРХИВ ПОГОДЫ в Шахтах

Время (UTC), дата Ветер
(напр.,м/с)
 
Видим.   Явления Облачность Т
(С)
Тd
(С)
f
(%)
Тe
(С)
Тes
(С)
Комфортность P
(гПа)
Po
(гПа)
Тmin
(С)
Tmax
(С)
R
(мм)
R24
(мм)
S
(см)
00 18.03 штиль 0 1000 м дымка {ливн. осадки} 9/3 600 м
[Sc diur, vesp Ac cuf]
+2.8 +2.8 100 +1 +1 по сезону 1018.2 1003.5
03 18.03 С 1 1000 м дымка 10/0
[Ac und]
+2.7 +2.7 100 +1 +1 по сезону 1020.0 1005.2 +1.6 2
06 18.03 В 3 4000 м дымка 10/0
[As op]
+5.5 +4.9 96 +2 +3 по сезону 1022.7 1008.1
09 18.03 В 3 10 км 10/10 600 м
[Sc]
+7.5 +5.0 84 +5 +5 тепло 1024.1 1009.5
12 18.03 В 1 20 км 8/6 600 м
[Cb cap Ac trans]
+10.7 +2.3 56 +11 +13 тепло 1024.1 1009.8
15 18.03 В 1 10 км 8/0
[Ac As]
+9.1 +3.0 66 +9 +9 тепло 1024.9 1010.4 +11.2
18 18.03 В 2 10 км ясно +3.5 +1.7 88 +1 +1 по сезону 1026.8 1012.0
21 18.03 ЮВ 2 10 км 1/0
[Ci fib]
+2.3 +1.5 94 -1 -1 по сезону 1027.4 1012.5
00 19.03 В 1 10 км 1/0
[Ci fib]
+0.5 +0.2 98 -2 -2 по сезону 1027.9 1012.9
03 19.03 В 2 10 км 3/0
[Ci fib]
-0.1 -0.1 100 -4 -4 по сезону 1028.3 1013.3 -0.7
06 19.03 В 3 4000 м дымка 3/0
[Ci fib]
+4.4 +2.9 90 +1 +4 по сезону 1028.8 1014.0
09 19.03 В 4 20 км 10/10 1000 м
[Sc]
+4.9 +2.5 84 +1 +1 по сезону 1029.0 1014.3
12 19.03 В 4 20 км 10/10 1000 м
[Sc]
+4.2 +2.4 88 -0 -0 прохладно 1028.6 1013.9
15 19.03 В 3 20 км 10/10 600 м
[Sc]
+3.9 +1.9 87 0 0 по сезону 1028.2 1013.4 +6.1
18 19.03 В 3 10 км 10/10 1000 м
[Sc]
+3.2 +1.6 89 -1 -1 по сезону 1028.6 1013.8
21 19.03 В 3 4000 м дымка 4/0
[Ac trans]
+1.5 +1.3 99 -3 -3 по сезону 1028.4 1013.5
00 20.03 СВ 1 500 м туман ясно -1.9 -1.9 100 -4 -4 по сезону 1027.9 1012.8
03 20.03 СВ 2 4000 м дымка {туман} ясно -1.7 -1.7 100 -6 -6 прохладно 1027.6 1012.5 -2.1
06 20.03 В 2 20 км {туман} ясно +4.5 +0.1 73 +2 +6 тепло 1027.8 1013.0
09 20.03 В 4 20 км ясно +10.0 -3.9 37 +8 +15 тепло 1026.7 1012.2
12 20.03 В 3 20 км ясно +12.4 -3.7 32 +11 +17 тепло 1025.0 1010.6
15 20.03 В 2 20 км ясно +10.6 -4.1 35 +10 +10 тепло 1024.5 1010.1 +12.8
18 20.03 В 2 10 км ясно +4.4 -3.9 55 +2 +2 по сезону 1025.6 1010.8
21 20.03 СВ 1 10 км ясно +1.1 -2.8 75 -1 -1 по сезону 1025.2 1010.3
00 21.03 В 1 10 км ясно -1.0 -3.0 86 -3 -3 по сезону 1024.6 1009.6
03 21.03 В 1 10 км ясно -1.5 -2.7 92 -4 -4 по сезону 1023.9 1008.9 -1.7
06 21.03 СЗ 1 10 км 4/0
[Cc]
+7.9 +0.6 60 +7 +12 тепло 1023.7 1009.2
09 21.03 СЗ 2 10 км 10/0
[Cs]
+11.6 +2.3 53 +11 +19 тепло 1022.7 1008.3
12 21.03 С 3 10 км 10/10 600 м
[Cb cap]
+6.5 +2.7 77 +4 +4 по сезону 1022.5 1007.9
15 21.03 С 1 20 км {ливн. осадки} 8/0
[Ac trans]
+5.4 +2.0 79 +4 +4 по сезону 1022.1 1007.5 +12.2 0.0
18 21.03 ЮЗ 1 10 км {ливн. осадки} 9/0
[Ac trans]
+2.9 +2.0 94 +1 +1 по сезону 1022.6 1007.8
21 21.03 штиль 0 10 км 9/5 1000 м
[Sc Ac trans]
+3.5 +2.0 90 +2 +2 по сезону 1022.3 1007.6
00 22.03 З 1 4000 м слаб. ливневой дождь 10/10 600 м
[Cb cap]
+2.5 +1.3 92 +1 +1 по сезону 1022.0 1007.2
03 22.03 СЗ 1 10 км {ливн. осадки} 3/0
[Ci fib]
+0.5 -0.5 93 -2 -2 по сезону 1021.9 1007.0 +0.5 0.9
06 22.03 СЗ 2 10 км {ливн. осадки} 10/3 1000 м
[Sc Ac und]
+3.2 +0.6 83 0 +1 по сезону 1022.4 1007.6 +0.1
09 22.03 З 2 10 км 9/4 1000 м
[Sc Ac trans]
+4.3 +1.1 80 +2 +5 по сезону 1021.5 1006.8
12 22.03 З 3 20 км 8/4 1000 м
[Sc Ac trans]
+7.5 -3.1 47 +5 +7 по сезону 1018.7 1004.2
15 22.03 ЮЗ 3
{11}
10 км 10/6 1000 м
[Sc Ac und]
+6.1 +0.7 68 +3 +3 по сезону 1016.3 1001.8 +7.8
18 22.03 ЮЗ 3
{10}
10 км 10/10 1000 м
[Sc]
+4.9 +0.9 75 +2 +2 по сезону 1013.2 998.6
21 22.03 ЮЗ 4-10
{13}
10 км 10/10 600 м
[Sc]
+4.1 +2.5 89 -0 -0 по сезону 1008.5 994.0
00 23.03 З 3
{11}
10 км 9/6 1000 м
[Sc Ac trans]
+3.3 +0.8 84 -1 -1 по сезону 1009.5 994.9
03 23.03 З 3 10 км в посл. час ливневой дождь 10/10 1000 м
[Sc]
+2.1 -1.4 78 -2 -2 по сезону 1010.3 995.7 +1.9 0.6
06 23.03 З 4-10
{11}
20 км {ливн. осадки} 3/0
[Ci fib]
+3.3 -2.6 65 -1 +2 по сезону 1011.2 996.6 +1.7
09 23.03 З 4
{11}
20 км 9/9 1000 м
[Sc diur, vesp]
+5.1 -5.9 45 +2 +2 по сезону 1010.7 996.2
12 23.03 З 4
{11}
20 км 6/6 1000 м
[Sc diur, vesp]
+6.8 -7.9 34 +4 +6 по сезону 1010.3 995.9
15 23.03 З 3
{10}
20 км 10/10 1000 м
[Sc]
+3.5 -2.1 67 0 0 прохладно 1011.6 997.0 +8.1
18 23.03 З 2 4000 м слаб. ливневой дождь 10/10 600 м
[Cb cap]
+1.5 +0.5 93 -2 -2 прохладно 1012.9 998.2
21 23.03 З 1 4000 м слаб. ливневой дождь 10/10 600 м
[Cb cap]
+1.1 +0.5 96 -1 -1 по сезону 1012.8 998.0
00 24.03 СЗ 2 4000 м слаб. ливневой снег 10/10 600 м
[Cb cap]
+0.4 +0.3 99 -3 -3 по сезону 1012.8 998.0
03 24.03 СЗ 1 4000 м дымка {ливн. осадки} 10/10 600 м
[Cb cap]
+0.7 +0.2 96 -1 -1 по сезону 1013.1 998.4 +0.3 2
06 24.03 СЗ 2 10 км {ливн. осадки} 10/10 600 м
[Sc diur, vesp]
+1.4 -0.3 88 -2 -2 по сезону 1014.4 999.7
09 24.03 З 3 20 км 9/4 600 м
[Cb cap Ac trans]
+4.1 -1.4 67 +1 +3 по сезону 1014.1 999.5
12 24.03 З 2 20 км в посл. час ливневой снег 10/6 600 м
[Cb cap Ac trans]
+3.2 -0.3 78 0 +1 холодно 1013.7 999.0
15 24.03 З 2 20 км 9/6 600 м
[Sc Ac trans]
+3.3 -1.9 69 +1 +1 прохладно 1013.9 999.2 +5.3 0.1
18 24.03 З 2 10 км 10/10 600 м
[Sc]
+2.6 -1.0 77 -0 -0 по сезону 1014.7 1000.1
21 24.03 З 2 10 км 10/10 600 м
[Sc]
+2.0 -1.5 78 -1 -1 по сезону 1014.7 1000.0

 

Местоположение метеостанции Шахты (Ростовская область, Россия): широта 47.70 долгота 40.27 высота над уровнем моря 117 м.

В архиве по умолчанию представлена погода в Шахтах за последнюю неделю. Архивные данные за месяц целиком и за предыдущие месяцы, начиная с января 2011 года, Вы можете получить, выбрав интересующий диапазон дат из раскрывающегося списка и нажав кнопку "Ввод!".


*Определитесь, кто Вы:
робот инопланетянин человек

Внимание! Время в таблицах - всемирное. Для получения местного времени необходимо прибавить поправку, которая равна 3 ч.

Смотрите также архив погоды в соседних городах и на ближайших метеорологических станциях:

Погода в Аэропорту Платов (Ростовская область, Россия) (35 км)
Погода в Семикаракорске (Ростовская область, Россия) (47 км)
Погода в Ростове-на-Дону (Ростовская область, Россия) (59 км)
Погода в Константиновске (Ростовская область, Россия) (64 км)
Погода в Каменск-Шахтинском (Ростовская область, Россия) (67 км)
Погода в Белой Калитве (Ростовская область, Россия) (72 км)
Погода в Зерноград (Ростовская область, Россия) (95 км)
Погода в Матвеевом Кургане (Ростовская область, Россия) (105 км)
Погода в Таганроге (Ростовская область, Россия) (117 км)
Погода в Маргаритово (Ростовская область, Россия) (136 км)

Пояснения к столбцам:

Ветер - указаны скорость ветра в м/с - средняя за 10 мин, порывы в срок и между сроками (в фигурных скобках) и направление, откуда дует ветер: С - северный, СВ - северо-восточный, В - восточный, ЮВ - юго-восточный, Ю - южный, ЮЗ - юго-западный, З - западный, СЗ - северо-западный.
Видимость - горизонтальная дальность видимости в метрах или километрах. При видимости от 1 до 10 км при отсутствии осадков обычно наблюдается дымка, при ухудшении видимости до 1 км и менее - туман. В сухую погоду видимость может ухудшаться дымом, пылью или мглою.
Явления - указаны атмосферные явления, наблюдавшиеся в срок или в последний час перед сроком; фигурными скобками обозначены явления, наблюдавшиеся между сроками (за 1-3 часа до срока); квадратными скобками обозначены град или гололедные отложения с указанием их диаметра в мм.
Облачность - указаны через наклонную черту общая и нижняя облачность в баллах и высота нижней границы облаков в метрах; квадратными скобками обозначены формы облаков: Ci - перистые, Cs - перисто-слоистые, Cc - перисто-кучевые, Ac - высококучевые, As - высокослоистые, Sc - слоисто-кучевые, Ns - слоисто-дождевые, Cu - кучевые, Cb - кучево-дождевые. Подробнее классификацию облаков см. в Атласе облаков (PDF).
T - Температура воздуха - температура, измеренная на высоте 2 м над землей.
Td - Температура точки росы - температура, при понижении до которой содержащийся в воздухе водяной пар достигнет насыщения.
f - Относительная влажность воздуха - влажноcть воздуха, измеренная на высоте 2 м над землей.
Te - Эффективная температура - температура, которую ощущает одетый по сезону человек в тени. Характеристика душности погоды. При расчете учитывается влияние влажности воздуха и скорости ветра на теплоощущения человека.
Tes - Эффективная температура на солнце - температура, которую ощущает человек, с поправкой на солнечный нагрев. Характеристика знойности погоды. Зависит от высоты солнца над горизонтом, облачности и скорости ветра. Ночью, в пасмурную погоду, а также при ветре 12 м/с и более поправка равна нулю.
P - Атмосферное давление - приведенное к уровню моря атмосферное давление.
Po - Атмосферное давление - измеренное на уровне метеостанции атмосферное давление.
Tmin - Минимальная температура - минимум температуры воздуха на высоте 2 м над землей.
Tmax - Максимальная температура - максимум температуры воздуха на высоте 2 м над землей.
R - Количество осадков - Количество выпавших осадков за период времени, мм. При наведении курсора мыши на число - период времени, за который выпало указанное количество осадков.
R24 - Количество осадков - Количество выпавших осадков за 24 часа, мм.
S - Снежный покров - Высота снежного покрова, см. При наведении курсора мыши на число - состояние снежного покрова и степень покрытия местности в баллах.